Location: Drocourt
(49.0571°N, 1.7669°E)
Time: 00:35:06
(UTC+00:00)

Cosmos 2322 - Pass Details

Date: 09 February 2023
Orbit: 841 x 854 km, 71.0° (Epoch: 21 March)

Event Time Altitude Azimuth Distance (km) Brightness Sun altitude
Rises 17:33:13 0° 178° (S) 3,408 7.0 -5.6°
Reaches altitude 10° 17:35:51 10° 169° (S) 2,477 6.2 -6.0°
Maximum altitude 17:40:55 34° 106° (ESE) 1,371 4.4 -6.8°
Drops below altitude 10° 17:46:00 10° 43° (NE) 2,492 5.7 -7.6°
Enters shadow 17:48:36 - 35° (NE) 3,412 6.4 -8.0°
